| time (UTC) | temp F | wind direction | speed MPH | gust MPH | rain 1hr in | rain 24hr in | rain mn in | humidity % | barometer mb |
| 20260503021005 | 86 | 112 | 0.0 | 1.0 | 0.00 | 0.00 | 0.00 | 74 | 1010.1 |
| 20260503020005 | 86 | 180 | 2.0 | 3.0 | 0.00 | 0.00 | 0.00 | 75 | 1010.3 |
| 20260503015005 | 86 | 112 | 0.0 | 1.0 | 0.00 | 0.00 | 0.00 | 78 | 1010.2 |
| 20260503014004 | 83 | 180 | 2.0 | 3.0 | 0.00 | 0.00 | 0.00 | 82 | 1010.2 |
| 20260503013005 | 0 | 0 | 0.0 | 0.0 | 0.00 | 0.00 | 0.00 | 100 | 1010.3 |
| 20260503012005 | 0 | 0 | 0.0 | 0.0 | 0.00 | 0.00 | 0.00 | 100 | 1010.2 |
| 20260503011004 | 81 | 157 | 2.0 | 3.0 | 0.00 | 0.00 | 0.00 | 89 | 1010.2 |
| 20260503010004 | 80 | 135 | 2.0 | 4.0 | 0.00 | 0.00 | 0.00 | 90 | 1010.1 |
| 20260503005005 | 80 | 135 | 1.0 | 2.0 | 0.00 | 0.00 | 0.00 | 92 | 1009.9 |
| 20260503004005 | 80 | 135 | 2.0 | 3.0 | 0.00 | 0.00 | 0.00 | 93 | 1010.0 |
| 20260503003004 | 79 | 157 | 3.0 | 3.0 | 0.00 | 0.00 | 0.00 | 93 | 1009.9 |
| 20260503002004 | 79 | 135 | 0.0 | 0.0 | 0.00 | 0.00 | 0.00 | 94 | 1009.8 |
| 20260503001005 | 78 | 135 | 0.0 | 1.0 | 0.00 | 0.00 | 0.00 | 95 | 1009.5 |
| 20260503000005 | 78 | 112 | 0.0 | 1.0 | 0.00 | 0.00 | 0.00 | 96 | 1009.5 |
| 20260502235005 | 78 | 112 | 0.0 | 0.0 | 0.00 | 0.00 | 0.00 | 96 | 1009.2 |
| 20260502234005 | 78 | 112 | 0.0 | 1.0 | 0.00 | 0.00 | 0.00 | 96 | 1009.1 |
| 20260502233005 | 77 | 112 | 0.0 | 1.0 | 0.00 | 0.00 | 0.00 | 97 | 1008.9 |
| 20260502232005 | 77 | 112 | 0.0 | 0.0 | 0.00 | 0.00 | 0.00 | 97 | 1009.0 |
| 20260502231005 | 77 | 90 | 0.0 | 1.0 | 0.00 | 0.00 | 0.00 | 97 | 1008.7 |
| 20260502230005 | 77 | 90 | 1.0 | 1.0 | 0.00 | 0.00 | 0.00 | 97 | 1008.5 |
| 20260502225006 | 77 | 135 | 0.0 | 1.0 | 0.00 | 0.00 | 0.00 | 97 | 1008.4 |
| 20260502224004 | 77 | 135 | 0.0 | 0.0 | 0.00 | 0.00 | 0.00 | 97 | 1008.4 |
| 20260502223005 | 77 | 135 | 0.0 | 0.0 | 0.00 | 0.00 | 0.00 | 97 | 1008.3 |
| 20260502222006 | 77 | 112 | 0.0 | 0.0 | 0.00 | 0.00 | 0.00 | 97 | 1008.3 |
| 20260502221005 | 77 | 112 | 0.0 | 1.0 | 0.00 | 0.00 | 0.00 | 97 | 1008.3 |
| 20260502220004 | 77 | 247 | 0.0 | 0.0 | 0.00 | 0.00 | 0.00 | 97 | 1008.0 |
| 20260502215005 | 77 | 270 | 0.0 | 0.0 | 0.00 | 0.00 | 0.00 | 97 | 1008.0 |
| 20260502214004 | 77 | 225 | 0.0 | 0.0 | 0.00 | 0.00 | 0.00 | 97 | 1007.8 |
| 20260502213005 | 77 | 225 | 0.0 | 0.0 | 0.00 | 0.00 | 0.00 | 97 | 1007.8 |
| 20260502212004 | 77 | 225 | 0.0 | 0.0 | 0.00 | 0.00 | 0.00 | 96 | 1007.6 |
| 20260502211004 | 77 | 270 | 0.0 | 1.0 | 0.00 | 0.00 | 0.00 | 96 | 1007.7 |
| 20260502210005 | 77 | 270 | 1.0 | 2.0 | 0.00 | 0.00 | 0.00 | 96 | 1007.5 |
| 20260502205005 | 77 | 270 | 1.0 | 1.0 | 0.00 | 0.00 | 0.00 | 96 | 1007.5 |
| 20260502204004 | 77 | 270 | 1.0 | 1.0 | 0.00 | 0.00 | 0.00 | 96 | 1007.3 |
| 20260502203005 | 77 | 270 | 0.0 | 1.0 | 0.00 | 0.00 | 0.00 | 97 | 1007.2 |
| 20260502202005 | 77 | 270 | 0.0 | 0.0 | 0.00 | 0.00 | 0.00 | 96 | 1007.4 |
| 20260502201004 | 77 | 270 | 0.0 | 0.0 | 0.00 | 0.00 | 0.00 | 96 | 1007.3 |
| 20260502195005 | 77 | 270 | 0.0 | 1.0 | 0.00 | 0.00 | 0.00 | 96 | 1007.3 |
| 20260502194005 | 77 | 270 | 1.0 | 1.0 | 0.00 | 0.00 | 0.00 | 96 | 1007.5 |
| 20260502193006 | 77 | 270 | 1.0 | 2.0 | 0.00 | 0.00 | 0.00 | 96 | 1007.4 |
| 20260502192005 | 77 | 225 | 2.0 | 2.0 | 0.00 | 0.00 | 0.00 | 96 | 1007.7 |
| 20260502191006 | 77 | 247 | 0.0 | 1.0 | 0.00 | 0.00 | 0.00 | 96 | 1007.7 |
| 20260502190005 | 78 | 247 | 1.0 | 3.0 | 0.00 | 0.00 | 0.00 | 96 | 1007.8 |
| 20260502185005 | 78 | 247 | 2.0 | 2.0 | 0.00 | 0.00 | 0.00 | 96 | 1007.9 |
| 20260502184004 | 78 | 225 | 0.0 | 2.0 | 0.00 | 0.00 | 0.00 | 96 | 1008.1 |
| 20260502183005 | 78 | 202 | 0.0 | 1.0 | 0.00 | 0.00 | 0.00 | 96 | 1008.1 |
| 20260502182005 | 78 | 225 | 0.0 | 1.0 | 0.00 | 0.00 | 0.00 | 96 | 1008.2 |
| 20260502181011 | 78 | 202 | 0.0 | 1.0 | 0.00 | 0.00 | 0.00 | 96 | 1008.3 |
| 20260502164004 | 78 | 225 | 1.0 | 2.0 | 0.00 | 0.00 | 0.00 | 95 | 1009.0 |
| 20260502163005 | 78 | 247 | 1.0 | 2.0 | 0.00 | 0.00 | 0.00 | 95 | 1009.2 |
| 20260502162004 | 78 | 270 | 1.0 | 2.0 | 0.00 | 0.00 | 0.00 | 95 | 1009.4 |
| 20260502161005 | 78 | 247 | 1.0 | 2.0 | 0.00 | 0.00 | 0.00 | 95 | 1009.4 |
| 20260502152004 | 79 | 247 | 2.0 | 3.0 | 0.00 | 0.00 | 0.00 | 95 | 1009.7 |
| 20260502151006 | 79 | 247 | 2.0 | 3.0 | 0.00 | 0.00 | 0.00 | 94 | 1009.4 |
| 20260502123006 | 79 | 202 | 1.0 | 2.0 | 0.00 | 0.00 | 0.00 | 95 | 1007.8 |
| 20260502122003 | 80 | 225 | 2.0 | 3.0 | 0.00 | 0.00 | 0.00 | 95 | 1007.6 |
| 20260502121005 | 80 | 247 | 2.0 | 3.0 | 0.00 | 0.00 | 0.00 | 95 | 1007.5 |
| 20260502115004 | 80 | 157 | 0.0 | 0.0 | 0.00 | 0.00 | 0.00 | 95 | 1007.3 |
| 20260502114005 | 80 | 157 | 0.0 | 0.0 | 0.00 | 0.00 | 0.00 | 95 | 1007.2 |
| 20260502113004 | 80 | 180 | 0.0 | 1.0 | 0.00 | 0.00 | 0.00 | 95 | 1006.8 |
| 20260502112004 | 80 | 225 | 0.0 | 1.0 | 0.00 | 0.00 | 0.00 | 94 | 1006.8 |
| 20260502111006 | 80 | 225 | 1.0 | 2.0 | 0.00 | 0.00 | 0.00 | 94 | 1006.6 |
| 20260502110005 | 81 | 225 | 2.0 | 2.0 | 0.00 | 0.00 | 0.00 | 93 | 1006.5 |
| 20260502105004 | 81 | 225 | 1.0 | 2.0 | 0.00 | 0.00 | 0.00 | 92 | 1006.3 |
| 20260502104005 | 80 | 202 | 1.0 | 1.0 | 0.00 | 0.00 | 0.00 | 93 | 1006.1 |
| 20260502103005 | 81 | 180 | 0.0 | 1.0 | 0.00 | 0.00 | 0.00 | 93 | 1006.0 |
| 20260502102004 | 81 | 180 | 1.0 | 1.0 | 0.00 | 0.00 | 0.00 | 91 | 1006.1 |
| 20260502101005 | 81 | 112 | 0.0 | 0.0 | 0.00 | 0.00 | 0.00 | 90 | 1006.0 |
| 20260502091004 | 80 | 67 | 0.0 | 1.0 | 0.00 | 0.00 | 0.00 | 92 | 1005.9 |
| 20260502071005 | 88 | 22 | 4.0 | 8.0 | 0.00 | 0.00 | 0.00 | 71 | 1005.8 |
| 20260502070005 | 88 | 337 | 6.0 | 10.0 | 0.00 | 0.00 | 0.00 | 70 | 1006.1 |
| 20260502065006 | 88 | 22 | 9.0 | 12.0 | 0.00 | 0.00 | 0.00 | 70 | 1006.1 |
| 20260502064005 | 88 | 0 | 5.0 | 10.0 | 0.00 | 0.00 | 0.00 | 71 | 1006.4 |
| 20260502063004 | 89 | 292 | 8.0 | 13.0 | 0.00 | 0.00 | 0.00 | 69 | 1006.4 |
| 20260502062003 | 89 | 0 | 6.0 | 10.0 | 0.00 | 0.00 | 0.00 | 70 | 1006.5 |
| 20260502061005 | 90 | 337 | 5.0 | 8.0 | 0.00 | 0.00 | 0.00 | 69 | 1006.6 |
| 20260502060004 | 91 | 337 | 9.0 | 11.0 | 0.00 | 0.00 | 0.00 | 66 | 1006.9 |
| 20260502055004 | 92 | 337 | 4.0 | 6.0 | 0.00 | 0.00 | 0.00 | 63 | 1007.0 |
| 20260502054004 | 91 | 292 | 4.0 | 6.0 | 0.00 | 0.00 | 0.00 | 61 | 1007.3 |
| 20260502053004 | 90 | 292 | 4.0 | 6.0 | 0.00 | 0.00 | 0.00 | 65 | 1007.6 |
| 20260502052003 | 90 | 270 | 6.0 | 6.0 | 0.00 | 0.00 | 0.00 | 64 | 1008.0 |
| 20260502051005 | 90 | 292 | 5.0 | 8.0 | 0.00 | 0.00 | 0.00 | 66 | 1008.3 |
| 20260502050004 | 90 | 270 | 3.0 | 4.0 | 0.00 | 0.00 | 0.00 | 65 | 1008.7 |
| 20260502045004 | 90 | 337 | 0.0 | 1.0 | 0.00 | 0.00 | 0.00 | 66 | 1009.0 |
| 20260502044004 | 89 | 22 | 0.0 | 1.0 | 0.00 | 0.00 | 0.00 | 68 | 1009.0 |
| 20260502043003 | 88 | 292 | 3.0 | 4.0 | 0.00 | 0.00 | 0.00 | 70 | 1009.0 |
| 20260502042004 | 88 | 225 | 2.0 | 3.0 | 0.00 | 0.00 | 0.00 | 71 | 1008.9 |
| 20260502041005 | 89 | 90 | 2.0 | 3.0 | 0.00 | 0.00 | 0.00 | 70 | 1009.2 |
| 20260502040005 | 88 | 90 | 0.0 | 2.0 | 0.00 | 0.00 | 0.00 | 70 | 1009.4 |
| 20260502035004 | 87 | 90 | 1.0 | 2.0 | 0.00 | 0.00 | 0.00 | 74 | 1009.8 |
| 20260502034005 | 86 | 45 | 1.0 | 2.0 | 0.00 | 0.00 | 0.00 | 75 | 1009.8 |
| 20260502033004 | 85 | 112 | 0.0 | 1.0 | 0.00 | 0.00 | 0.00 | 78 | 1009.9 |
| 20260502032004 | 86 | 67 | 3.0 | 6.0 | 0.00 | 0.00 | 0.00 | 79 | 1010.0 |
| 20260502031004 | 86 | 67 | 2.0 | 3.0 | 0.00 | 0.00 | 0.00 | 78 | 1010.1 |
| 20260502030004 | 86 | 67 | 1.0 | 2.0 | 0.00 | 0.00 | 0.00 | 77 | 1010.3 |
| 20260502025004 | 86 | 90 | 3.0 | 4.0 | 0.00 | 0.00 | 0.00 | 76 | 1010.1 |
| 20260502024004 | 87 | 45 | 0.0 | 1.0 | 0.00 | 0.00 | 0.00 | 74 | 1010.2 |
| 20260502023004 | 86 | 112 | 3.0 | 4.0 | 0.00 | 0.00 | 0.00 | 74 | 1010.2 |
| 20260502022004 | 86 | 45 | 0.0 | 0.0 | 0.00 | 0.00 | 0.00 | 76 | 1010.4 |